Wind_Speed
6 11 18 19 18 8 7 28 26 21 16 16 21 23 20 18 17 23 19 12 11 13 9 5 8 7 7 4 5 3 4 2 1 2 2 6 4 6 5 3 4 3 0 3 7
19 27 27 24 19 9 10 27 24 22 20 21 24 25 15 14 27 30 17 15 12 11 10 12 5 4 3 3 4 4 4 2 1 2 2 2 5 5 5 7 3 5 3 7 10
26 24 22 21 15 10 14 27 24 24 25 23 23 8 1 2 5 7 22 19 11 6 5 6 4 3 4 4 3 1 3 3 2 3 3 2 4 4 2 7 7 6 6 11 16
23 20 26 23 15 9 20 19 25 28 26 23 11 11 7 4 5 12 18 15 11 6 8 8 5 4 3 3 3 4 4 2 3 2 1 3 4 6 6 8 4 6 7 8 10
23 24 33 27 17 27 39 33 30 28 23 11 8 5 5 8 5 13 15 14 9 8 16 5 6 2 3 3 3 3 2 4 2 2 2 1 6 5 10 11 9 12 10 9 8
20 22 26 25 19 31 32 32 30 25 14 9 10 9 9 10 8 10 15 11 15 11 11 9 3 2 5 3 3 0 2 5 4 3 1 3 3 2 6 5 6 6 7 6 6
21 21 29 29 35 31 31 32 26 20 16 18 19 29 21 6 9 11 9 14 13 10 4 8 5 3 1 3 1 1 3 1 1 2 2 1 7 7 7 3 5 8 8 8 7
19 20 31 33 37 29 32 28 22 18 15 16 12 16 6 7 8 8 5 9 9 8 6 6 5 5 3 1 2 3 4 3 2 1 0 3 9 4 6 5 11 11 7 3 2
23 23 31 29 28 25 28 23 17 15 10 9 6 8 3 4 5 8 6 5 6 5 5 3 4 3 5 3 4 6 1 3 7 0 1 1 9 7 6 7 10 7 1 3 6
31 33 27 24 18 23 28 24 26 10 7 6 9 7 4 2 5 10 6 6 2 5 3 6 5 4 5 5 2 1 3 4 4 4 3 7 18 19 9 7 9 5 3 5 5
31 31 24 20 18 15 8 1 6 8 20 6 1 7 1 3 4 10 10 6 2 6 3 4 8 2 1 2 3 3 1 4 5 3 7 5 15 19 16 7 5 4 3 5 6
25 23 19 9 7 7 8 7 2 6 6 8 6 4 2 3 3 13 12 4 5 3 2 6 3 2 1 1 2 0 3 5 7 3 4 7 18 16 8 2 4 3 4 6 6
15 14 12 15 23 26 24 10 5 2 5 3 2 3 2 5 3 7 6 2 4 5 5 5 2 1 2 3 2 2 2 3 6 7 3 8 7 3 0 1 3 5 3 4 6
12 12 8 4 3 5 6 9 4 1 5 10 7 5 3 1 4 2 5 1 5 3 3 3 0 1 1 2 1 3 2 3 5 5 3 4 4 5 4 6 7 8 5 6 6
12 11 15 19 5 7 7 8 3 1 5 6 6 4 3 3 1 5 4 3 3 1 4 3 3 1 1 1 1 5 2 4 2 0 4 1 3 7 3 6 9 7 7 6 6
11 8 11 10 13 9 10 4 1 6 2 5 3 2 3 0 0 1 2 3 1 2 3 2 1 2 2 2 3 4 3 2 1 2 3 4 4 6 4 6 4 3 6 7 6
7 3 8 10 4 10 8 4 5 6 3 3 2 3 3 1 2 2 2 3 2 4 5 4 2 1 1 2 3 6 5 3 5 4 4 3 3 10 7 7 6 8 8 6 6
6 6 9 8 10 6 3 5 8 3 3 2 1 3 1 1 2 1 2 1 1 3 2 3 5 4 4 4 4 2 4 4 3 2 5 2 5 6 4 6 7 7 8 6 7
3 3 3 7 5 4 5 5 6 4 3 3 1 1 3 2 1 2 1 4 3 2 3 2 4 1 4 3 4 0 1 3 2 3 3 3 7 9 4 7 7 9 7 9 8
2 1 2 8 4 5 5 4 3 3 2 2 2 1 1 3 2 3 2 1 2 1 3 1 4 3 1 2 1 3 2 2 2 2 5 5 6 6 5 5 4 6 8 9 7
1 3 0 6 0 4 3 3 3 2 2 2 1 1 1 1 1 2 2 1 3 2 2 1 3 5 2 5 7 2 2 2 2 4 3 4 7 7 7 5 6 7 7 8 8
2 2 4 5 3 1 2 2 3 2 1 0 2 2 2 1 2 2 3 2 5 5 1 2 3 4 9 3 5 4 6 5 4 4 3 2 8 4 8 7 5 8 8 7 7
2 2 4 4 3 1 2 2 1 2 1 1 1 2 1 3 2 4 3 2 6 6 5 4 1 4 6 5 3 4 5 4 3 2 6 4 7 2 4 6 7 7 9 9 8
2 2 4 4 1 5 3 2 2 1 1 2 2 1 1 2 4 2 2 3 4 3 4 3 3 7 6 5 3 5 5 6 6 4 4 12 15 22 13 12 11 9 10 10 9
3 1 3 2 2 2 0 4 3 3 2 2 2 5 5 2 2 3 3 2 2 3 3 3 5 4 8 14 13 17 17 14 13 10 9 4 12 25 12 10 9 8 9 9 9
2 2 3 1 2 0 1 3 5 2 6 4 4 0 6 6 7 4 3 3 6 1 5 2 4 2 6 10 7 14 17 18 21 22 23 27 30 30 26 19 12 12 9 9 9
3 2 4 2 2 2 3 3 2 1 2 3 7 3 4 8 6 6 7 6 5 8 7 5 3 4 5 6 11 10 9 13 6 6 17 16 23 14 15 9 8 10 8 10 10
Wind_Direction
218 177 155 142 128 156 125 157 160 155 146 135 123 111 101 94 93 68 44 1 351 357 23 21 62 62 58 52 45 79 62 121 82 176 118 1 28 352 295 341 350 322 17 107 25
158 133 121 121 112 118 152 149 152 142 138 133 126 121 104 96 66 48 10 4 352 7 37 26 31 31 38 49 19 75 95 152 14 88 83 20 42 325 4 318 291 307 272 314 337
102 110 129 127 139 172 150 135 143 138 136 133 126 101 99 317 62 351 358 358 358 5 38 41 33 56 52 41 9 87 141 147 57 112 69 340 313 333 356 286 221 240 302 317 321
90 106 103 113 111 223 203 148 140 136 132 131 101 74 85 35 90 346 353 10 29 27 60 39 31 52 66 70 8 101 69 58 135 93 40 301 315 317 226 238 243 273 271 289 296
74 95 106 87 82 92 115 125 132 131 129 114 74 107 78 52 47 13 7 12 29 42 49 46 53 29 105 76 44 56 16 359 17 165 217 278 255 238 259 267 282 278 284 278 282
74 97 118 92 88 93 96 116 121 118 88 82 98 96 70 76 348 356 17 29 37 49 46 48 72 336 95 67 91 79 351 291 304 216 217 252 271 94 287 301 310 312 302 290 289
75 95 118 96 110 98 105 113 112 108 81 91 79 95 60 87 28 32 29 33 31 47 61 48 14 86 74 102 319 340 13 41 356 228 220 278 286 215 235 1 318 308 294 299 38
84 100 124 116 108 106 112 109 103 98 85 76 72 82 79 40 46 47 32 35 30 50 62 39 43 96 67 170 43 43 54 21 254 164 123 48 275 239 253 333 305 293 319 49 15
91 101 120 127 119 105 118 110 92 88 84 88 51 87 54 356 14 5 8 6 348 22 41 17 58 77 27 66 24 10 11 345 324 226 311 165 277 248 283 295 277 300 169 352 343
91 92 113 119 124 116 107 95 81 84 50 60 39 64 7 331 326 338 354 358 334 323 20 46 49 67 27 56 214 288 7 322 268 334 334 260 261 284 284 251 262 207 346 345 321
72 92 98 104 113 115 114 32 32 17 44 82 325 87 93 330 340 1 349 340 50 45 66 24 67 96 197 43 134 125 186 264 255 254 339 264 281 292 295 290 170 203 303 312 307
72 85 96 94 76 59 79 66 54 149 71 55 74 77 79 348 16 354 9 57 43 62 21 32 83 228 277 22 53 319 318 302 292 307 321 305 296 287 287 318 180 213 284 317 319
64 73 81 89 87 79 78 68 68 125 89 29 80 68 327 26 47 341 20 349 67 49 32 111 142 171 14 350 347 285 216 278 253 314 295 328 293 309 223 161 223 239 257 283 286
46 44 47 70 81 45 59 14 355 137 78 337 353 8 22 57 33 340 4 86 38 85 40 67 343 22 356 287 23 288 202 279 293 5 291 59 289 302 281 257 234 244 262 273 282
28 48 43 52 55 43 346 344 343 77 66 301 325 319 334 50 321 2 8 24 84 88 82 247 169 195 309 247 54 248 287 264 253 101 341 313 73 269 357 290 266 256 267 276 266
21 26 27 29 48 22 356 358 351 43 292 326 291 325 357 245 278 135 5 41 96 71 17 281 23 170 231 294 238 311 348 359 72 37 20 250 116 282 210 220 276 257 259 263 274
20 18 20 25 10 357 2 23 39 92 277 254 234 333 330 311 297 189 43 26 80 53 357 337 250 239 182 327 332 38 46 343 354 6 222 274 46 247 263 249 239 261 273 260 262
346 342 340 11 352 10 50 52 72 202 208 290 299 296 267 330 298 353 108 24 359 83 96 87 330 189 173 196 188 34 106 138 237 310 285 346 239 254 218 286 256 260 265 275 267
305 313 340 355 352 38 65 49 181 217 200 181 127 336 322 322 259 3 184 180 188 136 123 49 275 163 188 169 129 138 20 169 89 298 334 251 281 297 262 273 262 261 271 271 263
203 327 334 353 352 59 75 145 184 216 166 115 163 171 55 322 20 23 221 203 156 88 111 199 320 238 360 100 313 155 161 52 11 8 296 286 280 238 299 284 301 288 263 269 266
136 69 270 349 176 57 110 198 176 193 134 132 145 96 345 40 7 300 279 288 152 169 104 138 119 290 110 198 181 132 262 197 144 157 197 300 269 217 220 235 273 281 265 261 260
63 56 350 348 55 33 109 152 163 173 118 44 166 164 155 255 248 244 228 216 162 152 190 200 152 271 230 271 213 191 191 161 133 227 225 175 271 247 235 255 242 268 274 266 255
76 276 354 0 99 35 278 32 62 132 232 219 277 218 229 229 248 220 253 220 167 161 173 168 250 319 344 358 337 222 205 182 106 76 209 157 259 256 277 265 269 258 272 268 257
73 22 329 45 45 131 151 191 192 192 215 221 252 147 212 245 221 280 256 222 210 208 144 130 197 195 208 214 162 233 221 196 167 171 198 229 269 265 266 268 285 278 266 269 249
37 238 186 306 344 18 172 176 175 222 227 215 272 208 186 270 272 221 229 291 171 192 156 149 238 216 257 266 259 256 249 234 217 211 213 279 238 264 273 256 253 266 283 283 273
98 64 2 253 307 334 328 223 201 212 162 227 204 235 192 207 202 217 169 198 231 87 170 184 266 322 266 269 267 268 252 239 235 237 248 257 272 271 279 280 277 271 271 273 263
41 96 107 304 358 73 241 218 193 164 233 189 197 185 246 242 236 240 218 229 224 170 191 175 196 8 274 322 314 289 261 216 185 209 219 234 243 270 277 268 258 266 253 262 265
Height
752 755 757 763 763 770 771 779 785 791 795 798 800 802 804 804 805 803 808 816 815 810 807 806 806 806 808 811 812 816 837 841 836 831 832 831 829 828 824 823 823 820 819 820 820
749 754 759 760 764 771 775 780 787 792 796 799 801 803 804 804 804 808 819 816 814 811 809 809 810 810 816 815 818 826 842 833 831 833 835 833 834 834 830 828 825 821 816 818 818
753 758 763 764 770 773 776 781 789 793 797 802 803 805 805 805 806 821 819 816 814 812 811 810 811 812 819 820 823 825 836 829 833 833 833 835 834 835 834 830 826 822 819 816 816
763 763 762 769 769 772 778 785 792 795 800 804 805 805 804 805 825 824 822 818 815 813 811 812 814 819 827 829 825 830 829 829 833 834 834 836 836 837 834 825 819 821 820 818 815
769 768 770 774 777 770 779 788 794 799 804 807 805 806 806 816 829 826 824 819 816 815 814 816 821 825 832 831 830 832 835 834 833 834 835 835 837 838 828 821 821 819 817 815 813
778 776 777 780 780 781 786 791 798 804 807 807 807 807 809 827 830 828 826 822 820 819 820 821 826 828 831 834 836 838 838 839 835 834 835 836 836 835 823 820 818 816 815 814 813
783 784 786 787 788 790 794 798 804 808 809 810 811 810 818 834 832 830 828 826 825 824 826 826 827 828 832 836 837 838 838 837 837 835 836 837 834 836 822 819 817 817 814 812 813
789 790 792 795 795 799 803 807 810 812 813 813 815 813 833 833 833 832 831 829 829 828 828 827 828 831 835 836 837 839 843 846 834 835 835 836 838 821 818 820 818 814 812 812 811
793 795 799 802 803 808 811 812 814 816 816 816 817 818 838 835 835 834 833 831 831 831 830 829 830 837 840 845 854 855 850 846 844 834 836 839 837 818 818 819 817 814 812 811 812
801 802 805 809 812 813 815 817 818 817 818 819 821 825 838 840 837 835 834 833 833 833 832 833 842 855 859 866 860 855 859 855 852 841 838 840 832 815 813 813 813 813 813 815 813
812 813 815 818 819 819 816 815 818 827 826 834 837 838 840 839 838 836 834 832 833 836 841 842 863 873 854 851 851 852 855 858 851 839 840 835 828 813 806 809 815 814 815 815 811
820 821 822 822 820 820 818 821 829 832 841 837 838 839 839 839 839 837 835 837 839 849 842 854 864 853 849 849 850 851 854 856 845 839 841 835 823 811 807 808 812 812 813 812 808
826 826 826 824 823 822 825 831 832 832 840 843 841 841 841 840 843 842 840 840 843 849 853 859 853 850 849 849 849 849 853 853 859 847 841 841 826 807 804 810 813 812 810 809 808
829 827 826 825 828 828 830 832 832 832 860 853 845 844 842 840 844 842 842 844 844 849 850 852 851 850 850 850 849 853 847 849 852 858 869 846 847 817 807 807 808 807 809 808 807
832 831 830 826 829 830 834 831 830 831 891 854 848 842 841 844 845 844 843 842 848 849 854 854 853 853 851 848 847 850 846 848 849 859 851 848 875 818 811 806 801 799 802 803 802
836 833 832 831 831 834 833 831 831 865 892 866 849 846 845 843 844 845 844 843 845 847 850 851 849 850 849 848 846 845 849 848 850 854 885 848 859 829 823 807 795 797 799 800 799
835 835 834 834 836 835 832 832 865 887 864 856 853 847 847 845 843 844 844 847 855 868 882 857 849 847 847 850 847 855 878 888 871 878 860 850 865 821 800 797 796 794 795 795 795
833 833 833 836 835 835 833 848 874 859 859 850 851 850 850 845 843 843 848 853 847 855 881 878 870 849 847 848 854 850 865 890 875 876 868 841 851 812 791 791 793 792 793 792 792
835 835 836 836 835 834 841 875 874 863 854 853 851 853 854 848 849 846 845 853 849 849 859 867 854 843 845 841 844 846 867 854 873 869 872 863 830 799 790 789 790 790 789 788 787
837 838 837 837 837 837 856 862 859 851 849 849 853 850 852 849 849 849 847 844 847 846 849 853 868 844 841 841 843 845 848 866 886 875 867 856 844 823 799 785 782 783 785 783 781
838 841 838 838 838 845 868 864 850 848 847 849 850 848 850 849 847 849 845 844 844 848 848 850 862 853 845 849 849 853 855 853 860 867 871 865 834 802 793 780 778 778 778 778 776
839 849 838 837 848 859 855 845 845 847 847 848 847 846 847 847 848 847 844 841 842 846 849 851 864 876 852 838 838 841 842 847 867 851 861 861 829 779 780 777 775 774 773 772 771
846 846 837 836 861 860 850 847 846 848 847 847 847 846 845 848 850 848 842 840 842 844 848 851 865 885 854 848 838 837 836 837 848 859 856 864 816 774 776 774 772 774 771 768 767
847 858 847 844 851 851 846 846 846 845 845 845 846 845 846 848 847 847 843 842 843 844 844 847 862 859 866 836 837 838 832 836 841 865 847 823 787 762 768 770 766 768 767 765 762
850 857 857 857 851 848 845 844 845 846 846 844 846 847 849 850 846 850 845 841 843 843 847 852 862 863 853 843 840 835 831 831 840 828 825 789 790 761 765 769 766 762 760 759 756
853 856 857 857 853 846 848 844 845 841 845 847 848 842 848 849 846 843 842 845 844 850 850 854 856 855 857 836 837 832 822 820 815 811 806 795 787 758 755 756 758 757 757 755 751
852 852 854 856 856 855 853 842 840 839 838 838 843 845 846 845 843 842 842 841 839 846 852 853 857 860 850 840 835 814 792 793 802 800 792 800 760 757 756 757 755 752 751 749 744